Elkins, WV

2:31 AM EDT on June 23, 2017 (GMT -0400)
Elkins-Randolph County

Weather History for KEKN - December, 2011

Change the Weather History Date:

Wednesday, December 14, 2011

  Actual Average Record
Temperature  
Mean Temperature 41 °F 33 °F  
Max Temperature 48 °F 42 °F 67 °F (2001)
Min Temperature 33 °F 23 °F 0 °F (1960)
Degree Days  
Heating Degree Days 24 32  
Month to date heating degree days 401 426  
Since 1 July heating degree days 1503 1710  
Cooling Degree Days 0 0  
Month to date cooling degree days 0 0  
Year to date cooling degree days 699 475  
Moisture  
Dew Point 36 °F    
Average Humidity 90    
Maximum Humidity 100    
Minimum Humidity 80    
Precipitation  
Precipitation 0.05 in 0.11 in 2.28 in (1901)
Month to date precipitation 2.04 1.57  
Year to date precipitation 50.63 44.24  
Snow  
Snow 0.00 in - - ()
Month to date snowfall 4.2  
Since 1 September snowfall 5.8  
Snow Depth 0.00 in    
Sea Level Pressure  
Sea Level Pressure 30.30 in    
Wind  
Wind Speed 0 mph (WNW)    
Max Wind Speed 3 mph    
Max Gust Speed 5 mph    
Visibility 4 miles    
Events Fog , Rain    
T = Trace of Precipitation, MM = Missing Value Source: NWS Daily Summary

Daily Weather History Graph

Daily Weather History Graph

Search for Another Location

Airport or City:

Trip Planner

Search our weather history database for the weather conditions in past years. The results will help you decide how hot, cold, wet, or windy it might be!

Date:

Astronomy

Dec. 14, 2011 Rise Set
Actual Time 7:29 AM EST 4:58 PM EST
Civil Twilight 7:00 AM EST 5:28 PM EST
Nautical Twilight 6:26 AM EST 6:01 PM EST
Astronomical Twilight 5:54 AM EST 6:33 PM EST
Moon 9:14 PM EST (12/14) 10:15 AM EST (12/14)
Length of Visible Light 10h 27m
Length of Day
9h 28m
Waning Gibbous, 83% of the Moon is Illuminated
Dec 14
Waning Gibbous
Dec 17
Last Quarter
Dec 24
New
Jan 1
First Quarter
Jan 9
Full

Hourly Weather History & Observations

Time (EST) Temp. Windchill Dew Point Humidity Pressure Visibility Wind Dir Wind Speed Gust Speed Precip Events Conditions
12:51 AM 37.0 °F - 32.0 °F 82% 30.42 in 10.0 mi Calm Calm - N/A   Overcast
1:51 AM 37.0 °F - 33.1 °F 86% 30.42 in 10.0 mi Calm Calm - N/A   Overcast
2:51 AM 37.0 °F - 33.1 °F 86% 30.42 in 10.0 mi Calm Calm - N/A   Overcast
3:51 AM 36.0 °F 32.1 °F 32.0 °F 86% 30.38 in 10.0 mi West 4.6 mph - N/A   Overcast
4:51 AM 37.0 °F - 33.1 °F 86% 30.40 in 10.0 mi Calm Calm - N/A   Overcast
5:51 AM 37.0 °F - 33.1 °F 86% 30.38 in 10.0 mi Calm Calm - N/A   Overcast
6:51 AM 37.0 °F - 33.1 °F 86% 30.41 in 5.0 mi Calm Calm - 0.00 in Rain Light Rain
7:51 AM 36.0 °F - 35.1 °F 97% 30.41 in 4.0 mi Calm Calm - 0.02 in Rain Light Rain
8:09 AM 37.4 °F - 35.6 °F 93% 30.35 in 3.0 mi Calm Calm - 0.00 in Rain Light Rain
8:51 AM 37.9 °F - 36.0 °F 93% 30.42 in 4.0 mi Calm Calm - 0.01 in Rain Light Rain
9:20 AM 39.2 °F - 35.6 °F 87% 30.36 in 5.0 mi Calm Calm - 0.01 in   Overcast
9:51 AM 39.9 °F - 37.0 °F 89% 30.42 in 6.0 mi Calm Calm - 0.01 in   Overcast
10:10 AM 39.2 °F - 37.4 °F 93% 30.35 in 6.0 mi Calm Calm - 0.00 in Rain Light Rain
10:51 AM 41.0 °F - 37.9 °F 89% 30.40 in 7.0 mi Calm Calm - 0.00 in   Overcast
11:51 AM 43.0 °F - 39.9 °F 89% 30.37 in 6.0 mi Calm Calm - 0.00 in   Mist
11:58 AM 42.8 °F - 39.2 °F 87% 30.31 in 6.0 mi Calm Calm - N/A   Overcast
12:51 PM 43.0 °F - 39.9 °F 89% 30.34 in 6.0 mi Calm Calm - 0.00 in Rain Light Rain
1:15 PM 44.6 °F - 41.0 °F 87% 30.28 in 7.0 mi Calm Calm - 0.00 in   Overcast
1:51 PM 44.1 °F - 41.0 °F 89% 30.33 in 7.0 mi Calm Calm - 0.00 in   Overcast
2:25 PM 44.6 °F 43.1 °F 42.8 °F 93% 30.26 in 7.0 mi WNW 3.5 mph - N/A   Mostly Cloudy
2:51 PM 46.9 °F - 43.0 °F 86% 30.30 in 8.0 mi Calm Calm - N/A   Mostly Cloudy
3:51 PM 48.0 °F - 43.0 °F 83% 30.30 in 10.0 mi Calm Calm - N/A   Mostly Cloudy
4:51 PM 44.1 °F - 42.1 °F 93% 30.30 in 4.0 mi Calm Calm - 0.01 in   Scattered Clouds
4:58 PM 42.8 °F - 42.8 °F 100% 30.25 in 1.8 mi Calm Calm - N/A   Partly Cloudy
5:23 PM 41.0 °F - 39.2 °F 93% 30.24 in 0.5 mi Calm Calm - N/A Fog Fog
5:29 PM 39.2 °F - 37.4 °F 93% 30.24 in 1.2 mi Calm Calm - N/A   Partly Cloudy
5:41 PM 39.2 °F - 37.4 °F 93% 30.24 in 0.5 mi Calm Calm - N/A Fog Fog
5:51 PM 37.9 °F - 36.0 °F 93% 30.30 in 1.2 mi Calm Calm - N/A   Scattered Clouds
6:00 PM 35.6 °F - 35.6 °F 100% 30.23 in 0.5 mi Calm Calm - N/A Fog Fog
6:04 PM 35.6 °F - 35.6 °F 100% 30.24 in 0.2 mi Calm Calm - N/A Fog Fog
6:51 PM 35.1 °F - 34.0 °F 96% 30.29 in 0.2 mi Calm Calm - N/A Fog Fog
7:08 PM 35.6 °F - 35.6 °F 100% 30.23 in 0.2 mi Calm Calm - N/A Fog Fog
7:51 PM 35.6 °F - 33.8 °F 93% 30.22 in 0.2 mi Calm Calm - N/A Fog Fog
8:38 PM 33.8 °F - 33.8 °F 100% 30.22 in 0.2 mi Calm Calm - N/A Fog Fog
8:51 PM 34.0 °F - 33.1 °F 96% 30.28 in 0.2 mi Calm Calm - N/A Fog Fog
9:22 PM 33.8 °F - 33.8 °F 100% 30.21 in 0.2 mi Calm Calm - N/A Fog Fog
9:33 PM 33.8 °F - 33.8 °F 100% 30.20 in 0.5 mi Calm Calm - N/A Fog Fog
9:51 PM 33.8 °F - 32.0 °F 93% 30.19 in 0.5 mi Calm Calm - N/A Fog Fog
10:06 PM 33.8 °F - 32.0 °F 93% 30.19 in 1.0 mi Calm Calm - N/A   Overcast
10:19 PM 33.8 °F - 32.0 °F 93% 30.19 in 0.5 mi Calm Calm - N/A Fog Fog
10:51 PM 33.1 °F - 32.0 °F 96% 30.23 in 0.5 mi Calm Calm - N/A Fog Fog
11:36 PM 33.8 °F - 32.0 °F 93% 30.16 in 1.8 mi Calm Calm - N/A   Mostly Cloudy
11:38 PM 33.8 °F - 32.0 °F 93% 30.16 in 2.0 mi Calm Calm - N/A   Scattered Clouds
11:51 PM 33.1 °F - 32.0 °F 96% 30.22 in 2.5 mi Calm Calm - N/A   Partly Cloudy